www.pogodaiklimat.ru
ПОГОДА в Ершово

Архив погоды в Ершово (Иркутская область, Россия)

Время
(UTC), дата
18 16.07
21 16.07
00 17.07
03 17.07
06 17.07
09 17.07
12 17.07
15 17.07
18 17.07
21 17.07
00 18.07
03 18.07
06 18.07
09 18.07
12 18.07
15 18.07
18 18.07
21 18.07
00 19.07
03 19.07
06 19.07
09 19.07
12 19.07
15 19.07
18 19.07
21 19.07
00 20.07
03 20.07
06 20.07
09 20.07
12 20.07
15 20.07
18 20.07
21 20.07
00 21.07
03 21.07
06 21.07
09 21.07
12 21.07
15 21.07
18 21.07
21 21.07
00 22.07
03 22.07
06 22.07
09 22.07
12 22.07
15 22.07
18 22.07
00 23.07
06 23.07
Ветер
(напр.,м/с)
Видим. Явления Облачность Т
(С)
Тd
(С)
f
(%)
Тe
(С)
Тes
(С)
Комфортность P
(гПа)
Po
(гПа)
Тmin
(С)
Tmax
(С)
R
(мм)
R24
(мм)
S
(см)
С 1 н/о 8/0
[Ci fib]
+16.9 +16.9 100 +18 +18 1007.0 964.5
ЮЗ 1 50 км 3/0
[Ci fib]
+15.6 +15.6 100 +16 +16 1006.7 964.0
В 1 500 м туман, небо видно 6/0
[Ci fib]
+17.1 +17.1 100 +18 +22 1007.1 964.7 +15.6
В 1 50 км {туман} 10/3 600 м
[Cb calv Ci fib]
+22.6 +18.4 77 +28 +36 душно 1005.6 964.0
В 2 50 км {туман} 10/4 600 м
[Cb calv Ci fib]
+25.3 +17.0 60 +29 +36 душно 1004.6 963.4
В 1 50 км 10/3 600 м
[Cb calv Ci fib]
+25.7 +16.3 56 +29 +34 душно 1003.8 962.7
штиль 0 50 км 9/4 600 м
[Cb calv Ac trans]
+24.7 +19.0 71 +30 +30 очень душно 1003.4 962.2 +26.1
штиль 0 н/о 10/0
[Ci fib]
+19.9 +18.2 90 +23 +23 комфорт 1004.0 962.1
штиль 0 н/о 6/0
[Ci fib]
+18.3 +18.2 99 +19 +19 1003.9 961.8
СЗ 1 50 км 10/0
[Ci fib]
+17.6 +17.6 100 +19 +19 1003.3 961.1
Ю 1 500 м туман, небо видно 10/3 600 м
[Cb calv Ci fib]
+19.6 +18.6 94 +23 +26 комфорт 1002.6 960.7 +17.4
СВ 1 50 км 8/0
[Ci fib]
+24.9 +17.5 63 +29 +40 душно 1001.4 960.3
Ю 1 50 км 6/6 600 м
[Cb cap]
+27.7 +17.4 53 +32 +38 очень душно 999.5 958.8
В 3 50 км 9/9 600 м
[Cb cap]
+26.8 +17.3 56 +31 +31 душно 999.1 958.3
СЗ 1 50 км 10/4 600 м
[Cb calv Ci fib]
+25.3 +18.2 65 +30 +30 душно 999.0 958.1 +28.4
СЗ 1 н/о 10/0
[Ci fib]
+21.3 +16.9 76 +25 +25 комфорт 1000.1 958.5
штиль 0 н/о 8/0
[Ci fib]
+17.7 +17.2 97 +18 +18 1000.7 958.6
Ю 1 50 км 6/0
[Ci fib]
+16.4 +16.4 100 +17 +17 1000.6 958.3
штиль 0 50 км 10/3 600 м
[Cb calv Cs]
+16.9 +16.7 99 +17 +19 1000.5 958.3 +15.6
В 1 50 км 10/3 600 м
[Cb calv Ci fib]
+24.9 +18.1 66 +29 +37 душно 999.4 958.3
В 1 50 км 10/4 600 м
[Cb calv Ci fib]
+27.5 +15.7 49 +31 +38 душно 998.7 958.0
СВ 1 50 км 10/3 600 м
[Cb calv Ci fib]
+28.6 +13.6 40 +30 +35 жарко 998.0 957.5
СЗ 1 50 км 10/0
[Ci fib]
+25.4 +16.1 56 +29 +29 душно 998.3 957.4 +28.8
штиль 0 н/о 10/0
[Ac trans Cs]
+22.3 +16.5 70 +27 +27 душно 999.6 958.2
штиль 0 н/о 9/3 600 м
[Cb calv Ac trans]
+20.0 +18.9 93 +23 +23 комфорт 999.7 958.1
штиль 0 50 км 9/6 600 м
[Cb cap Ac trans]
+19.5 +18.6 95 +22 +22 комфорт 999.7 957.9
ЮВ 1 50 км 9/5 600 м
[Cb cap Ac trans]
+21.5 +19.0 86 +26 +27 душно 999.8 958.3 +19.4
штиль 0 50 км 9/6 600 м
[Cb cap Ac trans]
+25.9 +17.3 59 +30 +33 душно 999.4 958.5
СВ 2 50 км 10/5 600 м
[Cb cap Ci fib]
+28.6 +16.9 49 +32 +38 душно 998.1 957.6
ЮВ 2 {14} 50 км гроза, ливневой дождь 10/10 600 м
[Cb cap]
+19.6 +19.4 99 +23 +23 комфорт 999.6 957.9
Ю 1 {14} 50 км слаб. ливневой дождь {гроза} 9/9 600 м
[Cb cap]
+19.5 +18.9 96 +23 +23 комфорт 1000.3 958.6 +29.3 11
ЮЗ 1 н/о 10/6 600 м
[Cb cap Ci fib]
+18.5 +18.1 98 +20 +20 1000.5 958.5
СВ 2 н/о 10/10 600 м +17.8 +17.7 99 +22 +22 комфорт 1000.3 958.4
ЮЗ 2 50 км 10/3 600 м
[Cb calv Ci fib]
+18.3 +17.9 98 +19 +19 1000.4 958.4
В 1 50 км 8/3 600 м
[Cb calv Ci fib]
+20.9 +18.7 87 +26 +29 душно 1000.5 958.9 +17.6
В 1 50 км 10/4 1000 м
[Cu med, cong Ci fib]
+24.8 +19.8 74 +30 +37 душно 999.5 958.5
СЗ 2 50 км 10/3 1000 м
[Cu med, cong Ci fib]
+28.0 +19.0 58 +33 +41 очень душно 998.4 957.9
В 1 50 км 10/3 600 м
[Cb calv Ci fib]
+28.3 +17.6 52 +32 +37 душно 997.8 957.3
З 1 50 км 10/3 600 м
[Cb calv Ci fib]
+25.9 +17.2 59 +30 +30 душно 998.5 957.6 +29.5
штиль 0 н/о 10/0
[Ci fib]
+20.8 +16.9 78 +24 +24 комфорт 1000.1 958.4
штиль 0 н/о 10/0
[Ci fib]
+17.9 +17.2 96 +18 +18 1001.2 959.1
З 1 50 км 6/0
[Ci fib]
+17.4 +17.0 97 +18 +18 1001.0 958.9
СЗ 1 50 км 10/0
[Ac trans Ci fib]
+19.8 +17.3 86 +24 +26 комфорт 1001.2 959.3 +16.0
СВ 1 50 км 10/3 600 м
[Cb calv Cs]
+25.4 +19.4 69 +31 +38 очень душно 1000.1 959.1
СВ 1 50 км 10/4 600 м
[Cb calv Cs]
+27.8 +18.5 57 +33 +40 очень душно 999.3 958.7
С 2 50 км 10/6 600 м
[Cb cap Cs]
+26.6 +18.5 61 +31 +34 душно 999.2 958.4
З 1 50 км {гроза, ливн. дождь} 9/6 600 м
[Cb cap Ac trans]
+22.2 +19.3 84 +28 +28 душно 1000.5 959.1 +28.2 0.3
З 1 н/о слаб. ливневой дождь 9/9 600 м
[Cb cap]
+20.2 +19.8 98 +25 +25 комфорт 1000.5 958.8
штиль 0 н/о слаб. ливневой дождь 9/6 600 м
[Cb cap Ac trans]
+21.1 +20.0 93 +26 +26 душно 999.3 957.8
штиль 0 50 км {ливн. дождь} 9/4 600 м
[Cb calv Ac trans]
+21.0 +20.1 95 +26 +27 душно 997.8 956.4 +19.5 1
В 1 50 км 10/4 600 м
[Cb calv Ci fib]
+26.1 +19.1 65 +31 +39 очень душно 995.6 954.9
Местоположение метеостанции Ершово (Иркутская область, Россия): широта 57.12 долгота 102.30 высота над уровнем моря 370 м.
В архиве по умолчанию представлена погода в Ершово за последнюю неделю. Архивные данные за месяц целиком и за предыдущие месяцы, начиная с января 2011 года, Вы можете получить, выбрав интересующий диапазон дат из раскрывающегося списка и нажав кнопку "Найти!".
*Определитесь, кто Вы:
Внимание! Время в таблицах - всемирное. Для получения местного времени необходимо прибавить поправку, которая равна 8 ч.
Некоторые строки с данными для отдельных станций могут быть выделены курсивом. Это означает, что фактические данные отсутствуют по различным причинам, а приведенные значения являются расчетными модельными данными для данного пункта наблюдений.
Смотрите также архив погоды в соседних городах и на ближайших метеорологических станциях:
Партнеры нашего сайта:      
Пояснения к столбцам:
  • Ветер - указаны скорость ветра в м/с - средняя за 10 мин, порывы в срок и между сроками (в фигурных скобках) и направление, откуда дует ветер: С - северный,
  • СВ - северо-восточный, В - восточный, ЮВ - юго-восточный, Ю - южный, ЮЗ - юго-западный, З - западный, СЗ - северо-западный.
  • Видимость - горизонтальная дальность видимости в метрах или километрах. При видимости от 1 до 10 км при отсутствии осадков обычно наблюдается дымка, при ухудшении видимости до 1 км и менее - туман. В сухую погоду видимость может ухудшаться дымом, пылью или мглою.
  • Явления - указаны атмосферные явления, наблюдавшиеся в срок или в последний час перед сроком; фигурными скобками обозначены явления, наблюдавшиеся между сроками (за 1-3 часа до срока); квадратными скобками обозначены град или гололедные отложения с указанием их диаметра в мм.
  • Облачность - указаны через наклонную черту общая и нижняя облачность в баллах и высота нижней границы облаков в метрах; квадратными скобками обозначены формы облаков: Ci - перистые, Cs - перисто-слоистые, Cc - перисто-кучевые, Ac - высококучевые, As - высокослоистые, Sc - слоисто-кучевые, Ns - слоисто-дождевые, Cu - кучевые, Cb - кучево-дождевые. Подробнее классификацию облаков см. в Атласе облаков (PDF).
  • T - Температура воздуха - температура, измеренная на высоте 2 м над землей.
  • Td - Температура точки росы - температура, при понижении до которой содержащийся в воздухе водяной пар достигнет насыщения.
  • f - Относительная влажность воздуха - влажноcть воздуха, измеренная на высоте 2 м над землей.
  • Te - Эффективная температура - температура, которую ощущает одетый по сезону человек в тени. Характеристика душности погоды. При расчете учитывается влияние влажности воздуха и скорости ветра на теплоощущения человека.
  • Tes - Эффективная температура на солнце - температура, которую ощущает человек, с поправкой на солнечный нагрев. Характеристика знойности погоды. Зависит от высоты солнца над горизонтом, облачности и скорости ветра. Ночью, в пасмурную погоду, а также при ветре 12 м/с и более поправка равна нулю.
  • P - Атмосферное давление - приведенное к уровню моря атмосферное давление.
  • Po - Атмосферное давление - измеренное на уровне метеостанции атмосферное давление.
  • Tmin - Минимальная температура - минимум температуры воздуха на высоте 2 м над землей.
  • Tmax - Максимальная температура - максимум температуры воздуха на высоте 2 м над землей.
  • R - Количество осадков - Количество выпавших осадков за период времени, мм. При наведении курсора мыши на число - период времени, за который выпало указанное количество осадков.
  • R24 - Количество осадков - Количество выпавших осадков за 24 часа, мм.
  • S - Снежный покров - Высота снежного покрова, см. При наведении курсора мыши на число - состояние снежного покрова и степень покрытия местности в баллах.